sat.trackr.live / text

‹ back to catalog

STARLINK-11420 [DTC]

NORAD 62591 · 2025-008E

PAYLOAD ACTIVE UNKNOWN

§ Identity

Operator
Country
US
Launch date
2025-01-13
Launch site
AFETR
Launch vehicle
Mass (kg)
RCS (m²)

Purposes: comms

External: N2YO · Heavens-Above · Gunter

§ Orbital elements

Epoch: 2026-05-25T01:24:43.998048Z

Period
91.67 min
Inclination
43.0013°
Eccentricity
0.0002213
Mean motion
15.70887022 rev/d
Perigee alt
354.9 km
Apogee alt
357.9 km
Semi-major
6,734.5 km
B*
9.5125e-4
RAAN
25.9703°
Arg perigee
261.7766°
Mean anomaly
98.2851°
Rev number
7,930

§ Raw data

STARLINK-11420 [DTC]1 62591U 25008E   26145.05884257  .00123691  00000+0  95125-3 0  99912 62591  43.0013  25.9703 0002213 261.7766  98.2851 15.70887022 79307

JSON: /api/v1/satellites/62591 · /tle

For live sub-satellite position, see the globe view (requires WebGL).

§ Visibility from observer

Set your observer location to see the next 7 days of passes ≥ 10°. The values pass through the URL so the page stays shareable.

No JS? Fill the form by hand. The geolocation button needs JavaScript.